����,�O�C���x,�����t���O,�O�C���x,�����t���O,�󒲎����x,�����t���O,�󒲎����x,�����t���O,��󒲎�,�����t���O,����,�����t���O
2004/6/1 0:00,21.1,0,77,0,26.6,0,56.7,0,25.8,0,23.6,0
2004/6/1 0:15,21,0,76,0,26.5,0,57,0,25.7,0,22.7,0
2004/6/1 0:30,20.9,0,76,0,26.5,0,57.5,0,25.7,0,22.7,0
2004/6/1 0:45,20.9,0,78,0,26.6,0,58.1,0,25.6,0,22.8,0
2004/6/1 1:00,20.9,0,78,0,26.5,0,58.8,0,25.6,0,22.8,0
2004/6/1 1:15,20.9,0,77,0,26.5,0,59.4,0,25.6,0,22.9,0
2004/6/1 1:30,20.9,0,78,0,26.5,0,59.7,0,25.6,0,22.9,0
2004/6/1 1:45,20.8,0,78,0,26.5,0,59.9,0,25.6,0,23,0
2004/6/1 2:00,20.6,0,78,0,26.5,0,60.1,0,25.5,0,23.1,0
2004/6/1 2:15,20.6,0,78,0,26.5,0,60.6,0,25.5,0,23.1,0
2004/6/1 2:30,20.7,0,78,0,26.5,0,60.8,0,25.5,0,23.2,0
2004/6/1 2:45,20.5,0,78,0,26.5,0,61.1,0,25.5,0,23.2,0
2004/6/1 3:00,20.5,0,78,0,26.5,0,61.4,0,25.5,0,23.3,0
2004/6/1 3:15,20.6,0,78,0,26.5,0,61.5,0,25.4,0,23.3,0
2004/6/1 3:30,20.5,0,78,0,26.5,0,61.6,0,25.4,0,23.4,0
2004/6/1 3:45,20.6,0,78,0,26.5,0,61.5,0,25.4,0,23.4,0
2004/6/1 4:00,20.4,0,77,0,26.5,0,61.6,0,25.4,0,23.5,0
2004/6/1 4:15,20.3,0,78,0,26.5,0,61.7,0,25.4,0,23.5,0
2004/6/1 4:30,20.3,0,77,0,26.5,0,61.6,0,25.3,0,23.6,0
2004/6/1 4:45,20.2,0,77,0,26.4,0,61.8,0,25.3,0,23.6,0
2004/6/1 5:00,20.1,0,77,0,26.4,0,61.9,0,25.3,0,23.7,0
2004/6/1 5:15,19.9,0,77,0,26.4,0,62,0,25.3,0,23.7,0
2004/6/1 5:30,19.7,0,77,0,26.2,0,59.1,0,25.3,0,24.4,0
2004/6/1 5:45,19.7,0,76,0,26.1,0,58.5,0,25.2,0,24.4,0
2004/6/1 6:00,19.7,0,76,0,26,0,57.9,0,25.1,0,24.4,0
2004/6/1 6:15,19.8,0,75,0,25.9,0,58.2,0,25.1,0,21.4,0
2004/6/1 6:30,19.9,0,74,0,25.8,0,57.7,0,25.1,0,21.5,0
2004/6/1 6:45,20,0,72,0,25.9,0,56.6,0,25,0,21.5,0
2004/6/1 7:00,19.8,0,71,0,26,0,57.9,0,25,0,21.8,0
2004/6/1 7:15,20.5,0,69,0,25.9,0,55.7,0,25.1,0,21.9,0
2004/6/1 7:30,20.6,0,66,0,25.6,0,55.2,0,25,0,21.8,0
2004/6/1 7:45,21.5,0,65,0,25.5,0,55.8,0,25,0,21.9,0
2004/6/1 8:00,22.8,0,63,0,25.7,0,56.6,0,25,0,21.9,0
2004/6/1 8:15,23.6,0,59,0,25.7,0,57.1,0,25,0,22,0
2004/6/1 8:30,24.4,0,58,0,25.7,0,57.4,0,25,0,22.1,0
2004/6/1 8:45,25.9,0,55,0,25.8,0,57.5,0,25,0,22.1,0
2004/6/1 9:00,28.1,0,47,0,25.8,0,57.6,0,25,0,22.2,0
2004/6/1 9:15,27.4,0,46,0,25.8,0,57.6,0,24.9,0,22.2,0
2004/6/1 9:30,27.7,0,44,0,25.9,0,57.6,0,24.9,0,22.3,0
2004/6/1 9:45,27.9,0,44,0,25.9,0,57.4,0,24.9,0,22.3,0
2004/6/1 10:00,28.8,0,43,0,25.9,0,57.5,0,24.9,0,22.4,0
2004/6/1 10:15,30,0,39,0,25.9,0,57.6,0,24.9,0,22.5,0
2004/6/1 10:30,28.8,0,39,0,26,0,57.6,0,24.9,0,22.5,0
2004/6/1 10:45,28.1,0,42,0,26,0,57.3,0,24.9,0,22.6,0
2004/6/1 11:00,28.8,0,39,0,26,0,57.2,0,25,0,22.6,0
2004/6/1 11:15,27.5,0,42,0,26,0,57.2,0,25,0,22.7,0
2004/6/1 11:30,26.8,0,44,0,26,0,57.1,0,25,0,22.8,0
2004/6/1 11:45,26.5,0,45,0,26,0,56.8,0,25,0,22.8,0
2004/6/1 12:00,26.6,0,45,0,26.1,0,56.3,0,25,0,22.9,0
2004/6/1 12:15,26.4,0,45,0,26.2,0,55.3,0,25,0,22.9,0
2004/6/1 12:30,26,0,43,0,26.1,0,55,0,25,0,23,0
2004/6/1 12:45,25.8,0,41,0,26.2,0,55.2,0,25.1,0,23,0
2004/6/1 13:00,25.9,0,41,0,26.3,0,55.1,0,25.1,0,23.1,0
2004/6/1 13:15,25.7,0,43,0,26.4,0,54.9,0,25.1,0,23.1,0
2004/6/1 13:30,25.4,0,44,0,26.4,0,53.4,0,25.2,0,23.2,0
2004/6/1 13:45,25.5,0,44,0,26.4,0,52.9,0,25.2,0,23.2,0
2004/6/1 14:00,25.4,0,44,0,26.4,0,53.2,0,25.2,0,23.3,0
2004/6/1 14:15,25.2,0,44,0,25.6,0,48.5,0,25.3,0,23.3,0
2004/6/1 14:30,25.2,0,44,0,25.4,0,48.3,0,25.2,0,23.3,0
2004/6/1 14:45,25.1,0,42,0,25,0,52.5,0,25,0,23.4,0
2004/6/1 15:00,24.9,0,42,0,25,0,53.2,0,24.9,0,23.4,0
2004/6/1 15:15,24.7,0,43,0,25,0,53.7,0,24.8,0,23.5,0
2004/6/1 15:30,24.7,0,44,0,25.1,0,53.5,0,24.8,0,23.5,0
2004/6/1 15:45,24.7,0,46,0,25.3,0,53.2,0,24.8,0,23.7,0
2004/6/1 16:00,24.6,0,47,0,25.5,0,53.7,0,24.9,0,23.1,0
2004/6/1 16:15,24.6,0,47,0,25.9,0,52.6,0,24.9,0,23,0
2004/6/1 16:30,24.4,0,48,0,26.3,0,52.2,0,25,0,23,0
2004/6/1 16:45,24.5,0,48,0,26.7,0,51.7,0,25,0,23.1,0
2004/6/1 17:00,24.3,0,49,0,27,0,51.3,0,25.1,0,23.1,0
2004/6/1 17:15,24.3,0,49,0,26.9,0,50.9,0,25.1,0,23.2,0
2004/6/1 17:30,24.3,0,49,0,27.3,0,50.3,0,25.2,0,23.2,0
2004/6/1 17:45,24.2,0,50,0,27,0,48.8,0,25.3,0,23.5,0
2004/6/1 18:00,24.1,0,51,0,26.9,0,51.6,0,25.4,0,23.5,0
2004/6/1 18:15,24,0,52,0,26.9,0,50,0,25.5,0,23.5,0
2004/6/1 18:30,24.2,0,51,0,26.7,0,50.3,0,25.4,0,23.4,0
2004/6/1 18:45,24.4,0,50,0,26.8,0,51,0,25.3,0,23.4,0
2004/6/1 19:00,24.4,0,51,0,26.7,0,51.6,0,25.1,0,23.5,0
2004/6/1 19:15,24.2,0,50,0,26.6,0,53.6,0,25.1,0,23.5,0
2004/6/1 19:30,24,0,50,0,26.6,0,52.2,0,25.2,0,23.6,0
2004/6/1 19:45,23.9,0,51,0,26.7,0,52,0,25.3,0,23.6,0
2004/6/1 20:00,23.8,0,52,0,27.1,0,56.1,0,25.2,0,23.6,0
2004/6/1 20:15,23.6,0,52,0,27.3,0,52.7,0,25.1,0,23.7,0
2004/6/1 20:30,23.4,0,52,0,27.3,0,51.2,0,25,0,23.7,0
2004/6/1 20:45,23.3,0,52,0,27.4,0,50.5,0,25.1,0,23.3,0
2004/6/1 21:00,23.1,0,52,0,27.5,0,49.7,0,25.3,0,22.3,0
2004/6/1 21:15,23,0,51,0,27.5,0,49.1,0,25.5,0,22.2,0
2004/6/1 21:30,22.8,0,50,0,27.5,0,47.4,0,25.7,0,22.6,0
2004/6/1 21:45,22.9,0,51,0,27.4,0,47.7,0,25.8,0,22.6,0
2004/6/1 22:00,23.1,0,49,0,27.3,0,49.1,0,25.8,0,22.7,0
2004/6/1 22:15,23,0,49,0,27,0,47.9,0,25.7,0,23.1,0
2004/6/1 22:30,23.1,0,49,0,26.4,0,46.3,0,25.6,0,22.9,0
2004/6/1 22:45,23.1,0,50,0,26.4,0,48.1,0,25.5,0,22.9,0
2004/6/1 23:00,23,0,50,0,26.4,0,49,0,25.4,0,23,0
2004/6/1 23:15,22.9,0,51,0,26.3,0,48.4,0,25.3,0,23,0
2004/6/1 23:30,22.8,0,51,0,26.4,0,49.2,0,25.3,0,23.1,0
2004/6/1 23:45,22.7,0,52,0,26.7,0,50.3,0,25.3,0,23.1,0
2004/6/2 0:00,22.7,0,52,0,26.8,0,50.2,0,25.4,0,23.4,0
2004/6/2 0:15,22.6,0,53,0,26.9,0,50.2,0,25.5,0,23.5,0
2004/6/2 0:30,22.5,0,53,0,27,0,50.4,0,25.5,0,23.5,0
2004/6/2 0:45,22.3,0,53,0,27.1,0,50.7,0,25.6,0,23.5,0
2004/6/2 1:00,22.3,0,52,0,27.2,0,50.7,0,25.6,0,23.6,0
2004/6/2 1:15,22.1,0,52,0,27.2,0,51.3,0,25.6,0,23.8,0
2004/6/2 1:30,22,0,52,0,27.2,0,52.1,0,25.7,0,23.8,0
2004/6/2 1:45,22,0,51,0,27.2,0,52.1,0,25.7,0,23.9,0
2004/6/2 2:00,21.9,0,50,0,27.2,0,52.1,0,25.7,0,23.9,0
2004/6/2 2:15,21.6,0,50,0,27.2,0,51.9,0,25.7,0,23.9,0
2004/6/2 2:30,21.5,0,50,0,27.2,0,52.5,0,25.7,0,24,0
2004/6/2 2:45,21.4,0,52,0,27.2,0,52.6,0,25.7,0,24,0
2004/6/2 3:00,21.3,0,54,0,27.2,0,52.8,0,25.7,0,24,0
2004/6/2 3:15,21.2,0,55,0,27.2,0,53.2,0,25.8,0,24,0
2004/6/2 3:30,21.1,0,56,0,27.2,0,53.3,0,25.8,0,24.1,0
2004/6/2 3:45,21.1,0,56,0,27.2,0,53.4,0,25.8,0,24.1,0
2004/6/2 4:00,21,0,55,0,27.2,0,53.5,0,25.8,0,24.2,0
2004/6/2 4:15,21,0,55,0,27.2,0,53.5,0,25.8,0,24.2,0
2004/6/2 4:30,21,0,55,0,27.2,0,53.7,0,25.7,0,24.2,0
2004/6/2 4:45,21,0,55,0,27.2,0,53.9,0,25.7,0,24.3,0
2004/6/2 5:00,21.2,0,55,0,27.1,0,53.9,0,25.7,0,24.3,0
2004/6/2 5:15,21.3,0,55,0,27.1,0,54.1,0,25.7,0,24.3,0
2004/6/2 5:30,21.3,0,54,0,27.1,0,54,0,25.7,0,24.4,0
2004/6/2 5:45,21,0,55,0,27.1,0,54,0,25.6,0,24.4,0
2004/6/2 6:00,20.8,0,55,0,27.1,0,54.2,0,25.6,0,24.4,0
2004/6/2 6:15,20.8,0,55,0,27.1,0,54.4,0,25.6,0,24.5,0
2004/6/2 6:30,20.9,0,55,0,26.9,0,50.9,0,25.7,0,21.9,0
2004/6/2 6:45,21,0,56,0,26.6,0,49.2,0,25.3,0,21.9,0
2004/6/2 7:00,21.1,0,56,0,26.9,0,50.6,0,25.2,0,21.7,0
2004/6/2 7:15,21.6,0,55,0,26.9,0,51.1,0,25.2,0,21.8,0
2004/6/2 7:30,22,0,53,0,26.6,0,46.6,0,25.1,0,21.9,0
2004/6/2 7:45,22.3,0,51,0,26.7,0,48.2,0,25,0,22,0
2004/6/2 8:00,22.3,0,50,0,26.8,0,49.2,0,25.2,0,22,0
2004/6/2 8:15,22.6,0,48,0,26.8,0,50,0,25.3,0,22.1,0
2004/6/2 8:30,22.8,0,48,0,26.8,0,50.3,0,25.4,0,22.1,0
2004/6/2 8:45,23.8,0,46,0,26.9,0,50.8,0,25.4,0,22.2,0
2004/6/2 9:00,23.9,0,40,0,26.9,0,51,0,25.5,0,22.3,0
2004/6/2 9:15,23.8,0,38,0,27,0,51.3,0,25.5,0,22.3,0
2004/6/2 9:30,24.8,0,36,0,27,0,51.4,0,25.5,0,22.4,0
2004/6/2 9:45,27.5,0,31,0,27.1,0,51.3,0,25.5,0,22.5,0
2004/6/2 10:00,28.9,0,27,0,27.1,0,51.4,0,25.6,0,22.5,0
2004/6/2 10:15,29.1,0,27,0,27.1,0,51.7,0,25.6,0,22.6,0
2004/6/2 10:30,28.5,0,26,0,27.1,0,51.9,0,25.6,0,22.6,0
2004/6/2 10:45,28,0,28,0,27.2,0,51.8,0,25.7,0,22.7,0
2004/6/2 11:00,28.5,0,28,0,27.2,0,52,0,25.7,0,22.8,0
2004/6/2 11:15,27.7,0,30,0,27.3,0,51.9,0,25.8,0,22.8,0
2004/6/2 11:30,27.1,0,31,0,27.3,0,51.9,0,25.8,0,22.9,0
2004/6/2 11:45,26.6,0,32,0,27.4,0,51.8,0,25.8,0,22.9,0
2004/6/2 12:00,26.6,0,31,0,27.5,0,51.8,0,25.9,0,23,0
2004/6/2 12:15,26.6,0,31,0,27.6,0,51.6,0,25.9,0,23.1,0
2004/6/2 12:30,26.7,0,30,0,27.6,0,51.5,0,26,0,23.1,0
2004/6/2 12:45,26.6,0,30,0,27.7,0,51.5,0,26,0,23.2,0
2004/6/2 13:00,26.6,0,30,0,27.7,0,51.3,0,26.1,0,24.4,0
2004/6/2 13:15,26.5,0,30,0,27.8,0,51.3,0,26.1,0,24.4,0
2004/6/2 13:30,26.5,0,31,0,27.8,0,51.4,0,26.2,0,24.4,0
2004/6/2 13:45,26.5,0,31,0,27.9,0,51.3,0,26.3,0,24.4,0
2004/6/2 14:00,26.4,0,29,0,28,0,51.2,0,26.3,0,24.5,0
2004/6/2 14:15,26.3,0,28,0,28.1,0,50.8,0,26.4,0,24.5,0
2004/6/2 14:30,26.3,0,26,0,28.1,0,50.5,0,26.4,0,24.5,0
2004/6/2 14:45,26.3,0,26,0,28.1,0,50.1,0,26.5,0,24.6,0
2004/6/2 15:00,26.4,0,23,0,28.2,0,49.8,0,26.6,0,24.6,0
2004/6/2 15:15,26.3,0,23,0,28.2,0,44.7,0,26.6,0,24.6,0
2004/6/2 15:30,26.1,0,22,0,28.1,0,42,0,26.6,0,24.7,0
2004/6/2 15:45,25.9,0,22,0,28.2,0,40.6,0,26.6,0,24.7,0
2004/6/2 16:00,25.9,0,21,0,28.1,0,39.4,0,26.7,0,23.2,0
2004/6/2 16:15,25.8,0,21,0,27.8,0,32,0,26.6,0,22.9,0
2004/6/2 16:30,25.7,0,22,0,27.7,0,32.1,0,25.8,0,23,0
2004/6/2 16:45,25.6,0,21,0,27.7,0,31.4,0,25.3,0,23,0
2004/6/2 17:00,25.4,0,21,0,27.7,0,31.6,0,24.9,0,23.3,0
2004/6/2 17:15,25.1,0,21,0,27.3,0,30.8,0,24.7,0,23.3,0
2004/6/2 17:30,25,0,21,0,27.2,0,31.1,0,24.6,0,23.4,0
2004/6/2 17:45,24.9,0,22,0,27.3,0,32,0,24.7,0,23.4,0
2004/6/2 18:00,24.7,0,24,0,27.1,0,30.7,0,24.9,0,23.4,0
2004/6/2 18:15,24.7,0,25,0,27.2,0,30.7,0,24.8,0,23.5,0
2004/6/2 18:30,24.9,0,24,0,26.9,0,31.7,0,24.9,0,23.5,0
2004/6/2 18:45,24.8,0,23,0,26.8,0,33.3,0,25,0,23.6,0
2004/6/2 19:00,24.7,0,24,0,26.8,0,33.1,0,25,0,23.6,0
2004/6/2 19:15,24.6,0,24,0,27.1,0,33.5,0,24.7,0,23.7,0
2004/6/2 19:30,24.5,0,26,0,27.1,0,33.5,0,24.7,0,23.1,0
2004/6/2 19:45,24.4,0,28,0,27.1,0,34,0,24.6,0,22.7,0
2004/6/2 20:00,24.2,0,28,0,27.1,0,34.3,0,24.8,0,22.6,0
2004/6/2 20:15,24.1,0,29,0,27.1,0,34.7,0,24.5,0,22.7,0
2004/6/2 20:30,24,0,29,0,27.4,0,38.3,0,24.5,0,22.7,0
2004/6/2 20:45,24,0,29,0,27.6,0,41.4,0,24.7,0,23,0
2004/6/2 21:00,23.9,0,30,0,27.8,0,39.8,0,24.9,0,22.4,0
2004/6/2 21:15,23.9,0,29,0,27.8,0,37.9,0,25.2,0,22.5,0
2004/6/2 21:30,23.9,0,30,0,27.7,0,37.4,0,25.3,0,22.6,0
2004/6/2 21:45,23.9,0,30,0,27.7,0,37.2,0,25.6,0,22.6,0
2004/6/2 22:00,23.8,0,31,0,27.7,0,36,0,25.5,0,22.7,0
2004/6/2 22:15,23.7,0,31,0,27.7,0,36.4,0,25.4,0,22.7,0
2004/6/2 22:30,23.6,0,32,0,27.6,0,37.2,0,25.5,0,22.8,0
2004/6/2 22:45,23.5,0,32,0,27.5,0,36.2,0,25.6,0,22.9,0
2004/6/2 23:00,23.3,0,33,0,27.4,0,35.8,0,25.6,0,22.9,0
2004/6/2 23:15,23.3,0,34,0,27.2,0,33.5,0,25.5,0,23,0
2004/6/2 23:30,23.3,0,33,0,27.3,0,33.7,0,25.1,0,23,0
2004/6/2 23:45,23.1,0,31,0,27.2,0,35.3,0,25.3,0,23.1,0
2004/6/3 0:00,23.1,0,31,0,27.2,0,37,0,25.5,0,23.8,0
2004/6/3 0:15,23,0,32,0,27.1,0,36.6,0,25.6,0,23.8,0
2004/6/3 0:30,23.1,0,34,0,27.2,0,37.2,0,25.3,0,23.8,0
2004/6/3 0:45,23.1,0,34,0,27.2,0,38.1,0,25.4,0,23.9,0
2004/6/3 1:00,23,0,35,0,27.3,0,39,0,25.6,0,23.9,0
2004/6/3 1:15,22.9,0,36,0,27.3,0,39.8,0,25.6,0,23.9,0
2004/6/3 1:30,22.8,0,39,0,27.3,0,40.4,0,25.7,0,24,0
2004/6/3 1:45,22.7,0,40,0,27.4,0,41,0,25.8,0,24,0
2004/6/3 2:00,22.7,0,41,0,27.4,0,41.3,0,25.8,0,24,0
2004/6/3 2:15,22.7,0,40,0,27.4,0,42,0,25.8,0,24.1,0
2004/6/3 2:30,22.6,0,43,0,27.4,0,42,0,25.8,0,24.1,0
2004/6/3 2:45,22.5,0,44,0,27.4,0,41.9,0,25.8,0,24.2,0
2004/6/3 3:00,22.3,0,42,0,27.4,0,42.3,0,25.8,0,24.2,0
2004/6/3 3:15,22.2,0,42,0,27.4,0,42.9,0,25.8,0,24.2,0
2004/6/3 3:30,22,0,42,0,27.4,0,43.2,0,25.8,0,24.3,0
2004/6/3 3:45,22,0,45,0,27.4,0,43.4,0,25.8,0,24.3,0
2004/6/3 4:00,22,0,47,0,27.4,0,43.7,0,25.8,0,24.3,0
2004/6/3 4:15,21.8,0,46,0,27.3,0,44,0,25.8,0,24.4,0
2004/6/3 4:30,21.4,0,48,0,27.3,0,44,0,25.8,0,24.4,0
2004/6/3 4:45,21.7,0,48,0,27.3,0,44.4,0,25.8,0,24.4,0
2004/6/3 5:00,21.6,0,48,0,27.2,0,44.6,0,25.7,0,24.5,0
2004/6/3 5:15,21.4,0,48,0,27.2,0,45.2,0,25.7,0,24.5,0
2004/6/3 5:30,21.3,0,48,0,27.1,0,44,0,25.7,0,24.8,0
2004/6/3 5:45,21.2,0,49,0,26.9,0,43.7,0,25.6,0,24.8,0
2004/6/3 6:00,21.2,0,50,0,26.8,0,44.7,0,25.5,0,24.8,0
2004/6/3 6:15,21.1,0,50,0,26.7,0,45.1,0,25.4,0,24.9,0
2004/6/3 6:30,21.1,0,51,0,26.7,0,45.2,0,25.4,0,22,0
2004/6/3 6:45,21,0,51,0,26.9,0,45.4,0,25.4,0,21.9,0
2004/6/3 7:00,21.5,0,50,0,26.9,0,45.1,0,25.4,0,22,0
2004/6/3 7:15,22,0,49,0,27,0,45.8,0,25.5,0,22.1,0
2004/6/3 7:30,22.6,0,48,0,27,0,45.1,0,25.7,0,21.7,0
2004/6/3 7:45,23.1,0,47,0,27.1,0,45.9,0,25.8,0,21.8,0
2004/6/3 8:00,24.3,0,45,0,27.2,0,46.4,0,25.9,0,21.9,0
2004/6/3 8:15,25.3,0,43,0,27.2,0,46.7,0,26,0,22,0
2004/6/3 8:30,26.4,0,41,0,27.3,0,46.9,0,26,0,22,0
2004/6/3 8:45,27.8,0,38,0,27.3,0,47,0,26.1,0,22.1,0
2004/6/3 9:00,30.1,0,32,0,27.3,0,47.1,0,26.2,0,22.2,0
2004/6/3 9:15,31.7,0,29,0,27.4,0,47.2,0,26.2,0,22.2,0
2004/6/3 9:30,33.9,0,25,0,27.4,0,47.3,0,26.2,0,22.3,0
2004/6/3 9:45,35,0,24,0,27.4,0,47.3,0,26.2,0,22.4,0
2004/6/3 10:00,35.6,0,25,0,27.5,0,47.3,0,26.2,0,22.4,0
2004/6/3 10:15,35.9,0,23,0,27.5,0,47.3,0,26.2,0,22.5,0
2004/6/3 10:30,36.1,0,23,0,27.5,0,47.1,0,26.2,0,22.6,0
2004/6/3 10:45,35.6,0,23,0,27.5,0,47.1,0,26.3,0,22.6,0
2004/6/3 11:00,34.5,0,25,0,27.6,0,47.3,0,26.3,0,22.7,0
2004/6/3 11:15,32,0,28,0,27.6,0,47.4,0,26.3,0,22.8,0
2004/6/3 11:30,30.5,0,32,0,27.6,0,47.6,0,26.3,0,22.8,0
2004/6/3 11:45,29.6,0,34,0,27.7,0,47.8,0,26.4,0,22.9,0
2004/6/3 12:00,29,0,37,0,27.7,0,47.9,0,26.4,0,23,0
2004/6/3 12:15,28.5,0,39,0,27.8,0,47.9,0,26.4,0,23,0
2004/6/3 12:30,28.3,0,40,0,27.8,0,48.1,0,26.5,0,23.1,0
2004/6/3 12:45,28.1,0,40,0,27.8,0,48.2,0,26.5,0,23.2,0
2004/6/3 13:00,27.9,0,41,0,27.9,0,48.3,0,26.6,0,23.2,0
2004/6/3 13:15,27.5,0,42,0,27.9,0,48.1,0,26.6,0,23.3,0
2004/6/3 13:30,27.4,0,43,0,28,0,47.9,0,26.7,0,23.3,0
2004/6/3 13:45,27.3,0,43,0,28,0,47.6,0,26.8,0,23.4,0
2004/6/3 14:00,27.2,0,43,0,28.1,0,47.2,0,26.8,0,23.4,0
2004/6/3 14:15,27.3,0,42,0,28.2,0,47.1,0,26.9,0,23.5,0
2004/6/3 14:30,27.5,0,35,0,28.3,0,46.6,0,26.9,0,23.6,0
2004/6/3 14:45,27.6,0,33,0,28.4,0,45.3,0,27,0,23.6,0
2004/6/3 15:00,27.7,0,31,0,28.5,0,39.9,0,27,0,23.7,0
2004/6/3 15:15,27.7,0,32,0,28.4,0,44.1,0,27,0,23.7,0
2004/6/3 15:30,27.8,0,31,0,28.3,0,43.6,0,26.9,0,23.8,0
2004/6/3 15:45,27.8,0,30,0,28.4,0,42.4,0,26.8,0,23.8,0
2004/6/3 16:00,27.8,0,36,0,28.5,0,43.5,0,26.6,0,23.9,0
2004/6/3 16:15,26.9,0,40,0,28.3,0,42,0,26.5,0,24,0
2004/6/3 16:30,26.7,0,38,0,28.4,0,40.4,0,26.3,0,24,0
2004/6/3 16:45,26.6,0,42,0,28.5,0,46.5,0,26.1,0,24.1,0
2004/6/3 17:00,26.2,0,39,0,28.6,0,47.4,0,26,0,24.1,0
2004/6/3 17:15,25.9,0,39,0,28.6,0,47,0,26,0,24.1,0
2004/6/3 17:30,25.8,0,45,0,28.9,0,45.7,0,26,0,24.2,0
2004/6/3 17:45,25.5,0,49,0,29.1,0,46.5,0,26,0,24.2,0
2004/6/3 18:00,25.4,0,51,0,29.1,0,47.2,0,26.1,0,23.7,0
2004/6/3 18:15,25.5,0,49,0,29.2,0,47.4,0,26.1,0,23.2,0
2004/6/3 18:30,25.3,0,49,0,29.3,0,48.7,0,26.1,0,23.2,0
2004/6/3 18:45,25.5,0,51,0,29.3,0,48.7,0,26.1,0,23.3,0
2004/6/3 19:00,25.4,0,51,0,28.7,0,50.9,0,26.1,0,23.4,0
2004/6/3 19:15,25,0,55,0,28.7,0,52.5,0,26.2,0,23.4,0
2004/6/3 19:30,25,0,56,0,29,0,51.7,0,26.5,0,23.5,0
2004/6/3 19:45,24.7,0,58,0,29.2,0,53.3,0,26.6,0,23.5,0
2004/6/3 20:00,24.8,0,59,0,29,0,53,0,26.7,0,23.6,0
2004/6/3 20:15,24.9,0,59,0,29.1,0,51.9,0,26.9,0,23.7,0
2004/6/3 20:30,24.6,0,59,0,29.3,0,53.1,0,27.1,0,23.7,0
2004/6/3 20:45,24.5,0,61,0,28.5,0,52.7,0,27.3,0,23.8,0
2004/6/3 21:00,24.8,0,59,0,28.2,0,52.9,0,27.4,0,22.3,0
2004/6/3 21:15,25.1,0,59,0,28.2,0,52.4,0,27.4,0,22.4,0
2004/6/3 21:30,25.1,0,59,0,28.3,0,52.3,0,27.4,0,22.5,0
2004/6/3 21:45,25,0,59,0,28.2,0,52.4,0,27.5,0,22.6,0
2004/6/3 22:00,24.9,0,58,0,28.3,0,52.4,0,27.3,0,22.6,0
2004/6/3 22:15,24.8,0,58,0,28.3,0,51.3,0,27.4,0,23.3,0
2004/6/3 22:30,24.8,0,58,0,28.3,0,50.7,0,27.4,0,23.3,0
2004/6/3 22:45,24.7,0,57,0,28.3,0,51,0,27.4,0,23.4,0
2004/6/3 23:00,24.4,0,56,0,28.3,0,51.3,0,27.4,0,23.4,0
2004/6/3 23:15,24.3,0,56,0,28.3,0,50.7,0,27.4,0,23.5,0
2004/6/3 23:30,24.2,0,55,0,28.4,0,50.6,0,27.4,0,23.5,0
2004/6/3 23:45,24,0,55,0,28.5,0,50.4,0,27.5,0,23.1,0
2004/6/4 0:00,23.9,0,55,0,28.6,0,49.6,0,27.5,0,23.2,0
2004/6/4 0:15,23.8,0,55,0,28.6,0,49.8,0,27.5,0,23.6,0
2004/6/4 0:30,23.4,0,57,0,28.6,0,50.3,0,27.5,0,23.7,0
2004/6/4 0:45,23.6,0,56,0,28.6,0,49.3,0,27.5,0,23.7,0
2004/6/4 1:00,23.6,0,57,0,28.5,0,47.7,0,27.3,0,23.8,0
2004/6/4 1:15,23.5,0,57,0,28.5,0,46.8,0,27,0,23.8,0
2004/6/4 1:30,23.2,0,57,0,28.6,0,48.8,0,27.1,0,24,0
2004/6/4 1:45,22.9,0,55,0,28.6,0,49.9,0,27.2,0,24,0
2004/6/4 2:00,22.9,0,55,0,28.7,0,50.9,0,27.3,0,24.1,0
2004/6/4 2:15,23.3,0,57,0,28.7,0,51.3,0,27.4,0,24.1,0
2004/6/4 2:30,23.3,0,58,0,28.7,0,51.4,0,27.4,0,24.2,0
2004/6/4 2:45,23,0,58,0,28.8,0,51.5,0,27.4,0,24.2,0
2004/6/4 3:00,23.1,0,59,0,28.8,0,51.5,0,27.5,0,24.3,0
2004/6/4 3:15,23.3,0,60,0,28.8,0,51.5,0,27.5,0,24.3,0
2004/6/4 3:30,22.7,0,58,0,28.8,0,51.5,0,27.5,0,24.4,0
2004/6/4 3:45,22.2,0,58,0,28.8,0,51.5,0,27.5,0,24.4,0
2004/6/4 4:00,22.6,0,58,0,28.8,0,51.5,0,27.5,0,24.4,0
2004/6/4 4:15,22.4,0,56,0,28.8,0,51.5,0,27.5,0,24.5,0
2004/6/4 4:30,22,0,58,0,28.8,0,51.4,0,27.5,0,24.6,0
2004/6/4 4:45,21.8,0,59,0,28.8,0,51.6,0,27.5,0,24.6,0
2004/6/4 5:00,21.8,0,60,0,28.8,0,51.7,0,27.5,0,24.7,0
2004/6/4 5:15,21.6,0,61,0,28.8,0,51.7,0,27.4,0,24.7,0
2004/6/4 5:30,21.4,0,62,0,28.8,0,52,0,27.4,0,24.8,0
2004/6/4 5:45,21.8,0,60,0,28.6,0,49.9,0,27.4,0,24.8,0
2004/6/4 6:00,21.6,0,60,0,28.3,0,48.3,0,27.3,0,24.6,0
2004/6/4 6:15,21.4,0,60,0,28.1,0,49.4,0,27.2,0,24.3,0
2004/6/4 6:30,21.5,0,62,0,28,0,47.5,0,27,0,24.4,0
2004/6/4 6:45,22,0,62,0,28,0,49.4,0,26.9,0,22.7,0
2004/6/4 7:00,22.4,0,59,0,28.2,0,47.9,0,26.9,0,22.8,0
2004/6/4 7:15,22.7,0,56,0,28.1,0,47.5,0,26.7,0,21.9,0
2004/6/4 7:30,23.3,0,53,0,28,0,46.4,0,26.8,0,22.1,0
2004/6/4 7:45,24,0,49,0,28.1,0,47.2,0,26.8,0,22.2,0
2004/6/4 8:00,24.5,0,47,0,28.2,0,48.2,0,26.8,0,22.2,0
2004/6/4 8:15,26.4,0,43,0,28.3,0,48.8,0,27,0,22.3,0
2004/6/4 8:30,27.1,0,39,0,28.4,0,49.2,0,27.1,0,22.4,0
2004/6/4 8:45,29.2,0,35,0,28.4,0,49.5,0,27.2,0,22.5,0
2004/6/4 9:00,31.3,0,31,0,28.4,0,49.8,0,27.2,0,22.6,0
2004/6/4 9:15,33,0,28,0,28.5,0,49.7,0,27.2,0,22.7,0
2004/6/4 9:30,34.6,0,24,0,28.5,0,49.9,0,27.3,0,22.7,0
2004/6/4 9:45,35.1,0,22,0,28.6,0,50,0,27.3,0,22.8,0
2004/6/4 10:00,36.7,0,19,0,28.6,0,50.1,0,27.4,0,22.9,0
2004/6/4 10:15,38.5,0,17,0,28.7,0,50,0,27.4,0,23,0
2004/6/4 10:30,39.8,0,15,0,28.7,0,49.9,0,27.5,0,23,0
2004/6/4 10:45,39,0,15,0,28.7,0,49.9,0,27.5,0,23.1,0
2004/6/4 11:00,37.2,0,18,0,28.8,0,49.7,0,27.5,0,23.2,0
2004/6/4 11:15,33.6,0,26,0,28.8,0,49.4,0,27.6,0,23.3,0
2004/6/4 11:30,31.6,0,29,0,28.8,0,49.4,0,27.6,0,23.3,0
2004/6/4 11:45,30.7,0,30,0,28.8,0,49.4,0,27.6,0,23.4,0
2004/6/4 12:00,29.9,0,32,0,28.9,0,49.5,0,27.7,0,23.5,0
2004/6/4 12:15,29.4,0,36,0,28.9,0,49.5,0,27.7,0,23.5,0
2004/6/4 12:30,29,0,40,0,28.9,0,49.5,0,27.7,0,23.6,0
2004/6/4 12:45,28.9,0,41,0,28.9,0,49.5,0,27.8,0,23.7,0
2004/6/4 13:00,28.7,0,43,0,29,0,49.6,0,27.8,0,23.7,0
2004/6/4 13:15,28.4,0,42,0,29,0,49.6,0,27.9,0,23.8,0
2004/6/4 13:30,28.2,0,44,0,29.1,0,49.6,0,27.9,0,23.9,0
2004/6/4 13:45,28.3,0,45,0,29.1,0,49.6,0,28,0,23.9,0
2004/6/4 14:00,28.2,0,45,0,27.8,0,53.4,0,28,0,24,0
2004/6/4 14:15,27.9,0,46,0,28.4,0,49.6,0,27.9,0,24.1,0
2004/6/4 14:30,27.8,0,48,0,28.6,0,39.9,0,27.8,0,24.1,0
2004/6/4 14:45,27.8,0,48,0,28.8,0,37.4,0,27.8,0,24.2,0
2004/6/4 15:00,27.7,0,47,0,28.9,0,29,0,27.6,0,24.3,0
2004/6/4 15:15,27.8,0,28,0,29,0,30,0,27.7,0,24.3,0
2004/6/4 15:30,28.5,0,13,0,29.2,0,29.6,0,27.7,0,25.1,0
2004/6/4 15:45,29,0,12,0,29.4,0,25.6,0,27.8,0,25.2,0
2004/6/4 16:00,29.1,0,13,0,29.7,0,26.4,0,28,0,25.2,0
2004/6/4 16:15,29.1,0,13,0,29.9,0,29.1,0,28.1,0,25.3,0
2004/6/4 16:30,29.1,0,12,0,30.2,0,29.3,0,28.2,0,25.3,0
2004/6/4 16:45,29.2,0,13,0,30.7,0,30.2,0,28.4,0,24.7,0
2004/6/4 17:00,29.4,0,17,0,31.1,0,31.1,0,28.5,0,24.8,0
2004/6/4 17:15,29.5,0,19,0,31.5,0,31.8,0,28.7,0,24.8,0
2004/6/4 17:30,29.4,0,20,0,31.9,0,33.2,0,28.9,0,24.9,0
2004/6/4 17:45,29.4,0,22,0,32,0,35.1,0,28.9,0,24.9,0
2004/6/4 18:00,29.4,0,24,0,32.1,0,35.3,0,29,0,25,0
2004/6/4 18:15,29.4,0,26,0,31.9,0,35.1,0,29.1,0,25,0
2004/6/4 18:30,29.1,0,28,0,32,0,35.3,0,29,0,25.1,0
2004/6/4 18:45,29,0,30,0,31.6,0,33.1,0,29.1,0,25.2,0
2004/6/4 19:00,28.7,0,30,0,31.4,0,32.2,0,28.9,0,25.2,0
2004/6/4 19:15,28.6,0,30,0,30.3,0,32.3,0,28.8,0,25.3,0
2004/6/4 19:30,28.4,0,29,0,30.6,0,33.5,0,28.6,0,24.2,0
2004/6/4 19:45,28.3,0,30,0,30.7,0,35.1,0,28.4,0,23.8,0
2004/6/4 20:00,28.1,0,29,0,31,0,36,0,28.5,0,23.9,0
2004/6/4 20:15,27.8,0,30,0,30.9,0,36.4,0,28.7,0,24,0
2004/6/4 20:30,27.7,0,30,0,30.7,0,36.8,0,28.8,0,24.1,0
2004/6/4 20:45,27.7,0,29,0,30.9,0,38,0,29,0,24.1,0
2004/6/4 21:00,27.7,0,29,0,30.9,0,39,0,29.2,0,23.2,0
2004/6/4 21:15,27.5,0,31,0,30.8,0,39.3,0,29.3,0,23.4,0
2004/6/4 21:30,27.3,0,33,0,30.8,0,39.4,0,29.2,0,23.4,0
2004/6/4 21:45,27.2,0,35,0,30.6,0,38.3,0,29.1,0,23.5,0
2004/6/4 22:00,26.8,0,34,0,31,0,36.8,0,28.9,0,23.6,0
2004/6/4 22:15,26.6,0,35,0,31,0,37.4,0,28.7,0,23.7,0
2004/6/4 22:30,26.5,0,35,0,31.1,0,37.2,0,28.7,0,23.1,0
2004/6/4 22:45,26.2,0,35,0,30.9,0,36.9,0,28.5,0,23.4,0
2004/6/4 23:00,25.9,0,37,0,30.7,0,34,0,28.3,0,23,0
2004/6/4 23:15,25.7,0,36,0,30.3,0,33.6,0,28.2,0,22.7,0
2004/6/4 23:30,25.3,0,36,0,30.3,0,32.6,0,27.8,0,22.8,0
2004/6/4 23:45,25.1,0,35,0,29.9,0,32,0,27.4,0,22.9,0
2004/6/5 0:00,24.9,0,35,0,29.8,0,32.3,0,26.5,0,23,0
2004/6/5 0:15,24.8,0,34,0,29.8,0,32.4,0,26,0,23.1,0
2004/6/5 0:30,24.5,0,35,0,29.7,0,32.3,0,25.7,0,23.1,0
2004/6/5 0:45,24.1,0,35,0,29.6,0,32.4,0,25.5,0,23.2,0
2004/6/5 1:00,24,0,35,0,29.6,0,32.4,0,25.3,0,23.3,0
2004/6/5 1:15,23.9,0,36,0,29.5,0,32.3,0,25.2,0,23.4,0
2004/6/5 1:30,23.8,0,36,0,29.3,0,32.2,0,24.9,0,23.4,0
2004/6/5 1:45,23.7,0,36,0,29.2,0,32.4,0,24.7,0,23.5,0
2004/6/5 2:00,23.5,0,36,0,29.1,0,32.8,0,24.6,0,23.6,0
2004/6/5 2:15,23.3,0,36,0,29,0,33,0,24.4,0,23.6,0
2004/6/5 2:30,23.1,0,37,0,29,0,33.7,0,24.3,0,23.7,0
2004/6/5 2:45,22.9,0,38,0,28.9,0,34,0,24.4,0,23.8,0
2004/6/5 3:00,22.6,0,39,0,28.8,0,34.1,0,24.5,0,23.8,0
2004/6/5 3:15,22.4,0,41,0,28.7,0,34.1,0,24.2,0,23.9,0
2004/6/5 3:30,22.3,0,41,0,28.6,0,34.3,0,24.1,0,23.9,0
2004/6/5 3:45,22.1,0,42,0,28.6,0,34.4,0,24.2,0,24,0
2004/6/5 4:00,21.8,0,43,0,28.4,0,34.6,0,24.4,0,24,0
2004/6/5 4:15,21.9,0,43,0,28.4,0,34.8,0,24.4,0,24.1,0
2004/6/5 4:30,21.9,0,42,0,28.3,0,35,0,24.3,0,24.1,0
2004/6/5 4:45,22,0,42,0,28.2,0,34.8,0,24.4,0,24.2,0
2004/6/5 5:00,22,0,43,0,28.2,0,34.8,0,24.4,0,24.2,0
2004/6/5 5:15,21.7,0,43,0,28.1,0,35.2,0,24.6,0,24.3,0
2004/6/5 5:30,21.7,0,43,0,28.1,0,35.4,0,24.9,0,24.3,0
2004/6/5 5:45,21.6,0,42,0,28.2,0,36.3,0,25.3,0,24.4,0
2004/6/5 6:00,21.7,0,42,0,28.2,0,36.5,0,25.6,0,24.4,0
2004/6/5 6:15,21.8,0,41,0,28.3,0,36.1,0,25.9,0,24.8,0
2004/6/5 6:30,22.2,0,41,0,28.1,0,34.8,0,25.9,0,24.6,0
2004/6/5 6:45,22.6,0,39,0,28.1,0,38.2,0,25.4,0,24.6,0
2004/6/5 7:00,23,0,38,0,28.1,0,37.3,0,25.5,0,24.6,0
2004/6/5 7:15,23.1,0,37,0,27.9,0,36.2,0,25.7,0,22.9,0
2004/6/5 7:30,23.6,0,37,0,28.1,0,36.4,0,25.9,0,22.6,0
2004/6/5 7:45,24.7,0,35,0,28.1,0,36.1,0,26.1,0,22.9,0
2004/6/5 8:00,26.2,0,32,0,28,0,36.9,0,25.8,0,22.7,0
2004/6/5 8:15,27.1,0,28,0,28,0,37.2,0,25.6,0,22.8,0
2004/6/5 8:30,28.2,0,28,0,27.9,0,36.7,0,25.4,0,22.9,0
2004/6/5 8:45,27.8,0,29,0,28.1,0,38.1,0,25.3,0,24,0
2004/6/5 9:00,29.6,0,27,0,28.2,0,37.8,0,25.8,0,23.6,0
2004/6/5 9:15,30.2,0,25,0,28.2,0,37.9,0,26.1,0,23.4,0
2004/6/5 9:30,33.1,0,23,0,27.9,0,38.7,0,26,0,23.5,0
2004/6/5 9:45,36.7,0,18,0,28.1,0,38.8,0,25.7,0,23.6,0
2004/6/5 10:00,37.6,0,16,0,28,0,39,0,25.8,0,23.6,0
2004/6/5 10:15,36.7,0,17,0,28.2,0,39.5,0,25.7,0,23.6,0
2004/6/5 10:30,36.4,0,18,0,28.4,0,39.5,0,26,0,23.7,0
2004/6/5 10:45,34.7,0,20,0,28.5,0,39.7,0,26.3,0,23.7,0
2004/6/5 11:00,34.5,0,21,0,28.6,0,39.9,0,26.6,0,23.8,0
2004/6/5 11:15,32.3,0,24,0,28.7,0,40.1,0,26.8,0,23.9,0
2004/6/5 11:30,29.9,0,31,0,28.8,0,40.3,0,26.9,0,23.9,0
2004/6/5 11:45,29.3,0,34,0,28.9,0,40.4,0,27,0,24,0
2004/6/5 12:00,28.8,0,34,0,29,0,41.3,0,27.2,0,24.2,0
2004/6/5 12:15,28.7,0,36,0,29.1,0,43,0,27.3,0,24.2,0
2004/6/5 12:30,28.5,0,37,0,29.3,0,42.4,0,27.4,0,24.2,0
2004/6/5 12:45,28.7,0,37,0,29.4,0,43.7,0,27.6,0,23.3,0
2004/6/5 13:00,28.7,0,37,0,29.4,0,43,0,27.7,0,23.4,0
2004/6/5 13:15,28.7,0,37,0,29.6,0,42.4,0,27.8,0,23.5,0